Location: Enid
(36.3960°N, 97.8780°W)
Time: 11:36:35
(UTC-06:00)

HST - Visible Passes

Search period start: 21 November 2014 00:00
Search period end: 01 December 2014 00:00
Orbit: 545 x 550 km, 28.5° (Epoch: 20 November)

Date Brightness Start Highest point End Pass type
(mag) Time Alt. Az. Time Alt. Az. Time Alt. Az.
21 Nov 3.4 05:19:56 10° S 05:22:00 13° SSE 05:24:03 10° SE visible
22 Nov 3.1 05:13:12 15° S 05:14:23 16° SSE 05:17:00 10° SE visible
23 Nov 2.9 05:06:26 19° S 05:06:46 19° SSE 05:09:45 10° ESE visible
23 Nov 2.5 06:44:06 10° WSW 06:47:39 27° S 06:51:13 10° ESE visible
24 Nov 2.8 04:59:35 21° SSE 04:59:35 21° SSE 05:02:23 10° ESE visible
24 Nov 2.5 06:36:31 10° WSW 06:40:04 27° S 06:43:38 10° ESE visible
25 Nov 2.9 04:52:39 21° SSE 04:52:39 21° SSE 04:54:56 10° ESE visible
25 Nov 2.5 06:28:57 10° WSW 06:32:29 26° S 06:36:00 10° SE visible
26 Nov 3.1 04:45:40 20° SE 04:45:40 20° SE 04:47:26 10° ESE visible
26 Nov 2.5 06:21:26 10° WSW 06:24:53 25° S 06:28:19 10° SE visible
27 Nov 3.4 04:38:39 17° SE 04:38:39 17° SE 04:39:53 10° ESE visible
27 Nov 2.6 06:14:11 11° WSW 06:17:15 23° S 06:20:34 10° SE visible
28 Nov 3.7 04:31:36 14° SE 04:31:36 14° SE 04:32:17 10° ESE visible
28 Nov 2.7 06:07:07 13° SW 06:09:37 20° SSW 06:12:44 10° SE visible
29 Nov 4.0 04:24:32 11° SE 04:24:32 11° SE 04:24:39 10° SE visible
29 Nov 2.8 06:00:04 14° SW 06:01:58 18° SSW 06:04:47 10° SSE visible
30 Nov 2.9 05:52:59 13° SW 05:54:17 15° SSW 05:56:41 10° SSE visible
